Regional Weather Roundup
Issued by NWS

Home | Current Version | Previous Version | Graphics & Text | Print | Product List | Glossary On
Versions: 1 2 3 4 5 6 7 8 9 10 11 12 13 14 15 16 17 18 19 20 21 22 23 24 25 26 27 28 29 30 31 32 33 34 35 36 37 38 39 40 41 42 43 44 45 46 47 48 49 50
000
ASUS45 KPSR 102210
RWRAZ

ARIZONA HOURLY REGIONAL WEATHER ROUNDUP
NATIONAL WEATHER SERVICE PHOENIX AZ
300 PM MST WED FEB 10 2016

NOTE: FAIR INDICATES FEW OR NO CLOUDS BELOW 12,000 FEET WITH NO
SIGNIFICANT WEATHER AND/OR OBSTRUCTIONS TO VISIBILITY.

AZZ001>003-036-102300-
NORTHWEST ARIZONA

CITY           SKY/WX    TMP DP  RH WIND       PRES   REMARKS
BULLHEAD CITY  MOSUNNY   75  25  15 N17G24    30.18F
KINGMAN        SUNNY     70  21  15 CALM      30.26F
$$

AZZ004>008-015-016-018-102300-
NORTH CENTRAL ARIZONA

CITY           SKY/WX    TMP DP  RH WIND       PRES   REMARKS
GRAND CANYON   MOSUNNY   63   7  11 W5        30.39F
WILLIAMS       MOSUNNY   63  10  13 W6        30.44F
PRESCOTT       MOSUNNY   71  12  10 VRB5      30.31F
FLAGSTAFF      MOSUNNY   63   2   8 W7        30.39F
PAYSON         MOSUNNY   66  19  16 S7        30.32F
PAGE           MOSUNNY   53  28  38 VRB3      30.35F
$$

AZZ009>014-017-102300-
NORTHEAST ARIZONA

CITY           SKY/WX    TMP DP  RH WIND       PRES   REMARKS
WINSLOW        SUNNY     62  21  20 N5        30.35F
SAINT JOHNS    SUNNY     61  20  20 NW10      30.35F
WINDOW ROCK    SUNNY     63   0   8 N5        30.37F
SHOW LOW       SUNNY     57  19  23 N7        30.39F
$$

AZZ023-102300-
GREATER PHOENIX AREA

CITY           SKY/WX    TMP DP  RH WIND       PRES   REMARKS
PHOENIX        PTSUNNY   83  23  11 CALM      30.12F
BUCKEYE        PTSUNNY   79  32  18 SE8       30.15F
GLENDALE       PTSUNNY   82  27  13 CALM      30.14F
DEER VALLEY    MOSUNNY   80  24  12 CALM      30.13F
SCOTTSDALE     MOSUNNY   80  22  11 W3        30.15F
MESA-FALCON    MOSUNNY  N/A N/A N/A VRB5      30.14F
MESA-GATEWAY   MOSUNNY   79  28  15 CALM      30.15F
CHANDLER       PTSUNNY   82  25  12 VRB5      30.14F
$$

AZZ027-028-102300-
SOUTHWEST MARICOPA COUNTY AND PINAL COUNTY

CITY           SKY/WX    TMP DP  RH WIND       PRES   REMARKS
CASA GRANDE    SUNNY     81  27  13 NE5       30.15F
$$

AZZ503-504-507>509-102300-
SOUTHEAST ARIZONA

CITY           SKY/WX    TMP DP  RH WIND       PRES   REMARKS
TUCSON         SUNNY     82  11   7 W6        30.18F
DAVIS-MONTHAN  SUNNY     80  14   8 CALM      30.16F
RYAN FIELD     SUNNY     82  21  10 CALM      30.17F
NOGALES        SUNNY     80  13   8 VRB5      30.22F
SIERRA VISTA   SUNNY     71  12  10 VRB1      30.27F
DOUGLAS        SUNNY     74  11   9 W8        30.25F
SAFFORD        SUNNY     73  19  13 CALM      30.22F
$$

AZZ020-021-025-026-031-102300-
SOUTHWEST ARIZONA

CITY           SKY/WX    TMP DP  RH WIND       PRES   REMARKS
YUMA           PTSUNNY   86  24  10 NW9       30.11F
$$

CAZ031-033-041-043-047-048-061-102300-
SOUTHERN CALIFORNIA

CITY           SKY/WX    TMP DP  RH WIND       PRES   REMARKS
DOWNTOWN L.A.  SUNNY     85  25  11 CALM      30.06F
L.A. AIRPORT   MOSUNNY   76  44  32 W10       30.08F
SAN DIEGO      MOSUNNY   85  26  11 VRB7      30.08F
BURBANK        SUNNY     86  25  11 CALM      30.09F
ONTARIO        MOSUNNY   85  22  10 CALM      30.09F
RIVERSIDE      MOSUNNY   88  20   8 VRB6      30.09F
PALM SPRINGS   MOSUNNY   83  24  11 SE5       30.14F
EL CENTRO NAS  MOSUNNY   84  25  11 VRB3      30.13F
IMPERIAL       MOSUNNY   84  25  11 CALM      30.11F
BLYTHE         MOSUNNY   83  26  12 VRB3      30.14F
NEEDLES        MOSUNNY   77  27  15 VRB7      30.18F
$$

NVZ020-UTZ003-102300-
SOUTHERN NEVADA-UTAH

CITY           SKY/WX    TMP DP  RH WIND       PRES   REMARKS
LAS VEGAS      MOSUNNY   69  24  18 NE5       30.20F
SALT LAKE CITY PTSUNNY   33  28  81 NW6       30.43F HAZE    WCI  28
$$

NMZ009-TXZ055-102300-
NEW MEXICO-WEST TEXAS

CITY           SKY/WX    TMP DP  RH WIND       PRES   REMARKS
ALBUQUERQUE    MOSUNNY   60  16  18 VRB3      30.32F
EL PASO        SUNNY     69  14  12 CALM      30.26F
$$


........................KEY........................
SKY/WX - SKY CONDITION/WEATHER
TMP    - TEMPERATURE IN FAHRENHEIT
DP     - DEW POINT IN FAHRENHEIT
RH     - RELATIVE HUMIDITY IN PERCENT
WIND   - DIRECTION AND SPEED IN MILES PER HOUR (MPH)
VRB    - VARIABLE WIND DIRECTION
PRES   - MEAN SEA LEVEL PRESSURE IN INCHES OF MERCURY
         F - FALLING PRESSURE   R - RISING PRESSURE
         S - STEADY PRESSURE
VSB    - VISIBILITY IN MILES
HX     - HEAT INDEX IN FAHRENHEIT
WCI    - WIND CHILL INDEX IN FAHRENHEIT
TC     - TEMPERATURE IN CELSIUS WHICH IS ALSO KNOWN AS
         TEMPERATURE IN CENTIGRADE
AFB    - AIR FORCE BASE
         LUKE AFB IS LUKE AIR FORCE BASE
         DAVIS-MONTHAN IS DAVIS-MONTHAN AIR FORCE BASE
NAS    - NAVAL AIR STATION
         EL CENTRO NAS IS EL CENTRO NAVAL AIR STATION
N/A    - NOT AVAILABLE




USA.gov is the U.S. government's official web portal to all federal, state and local government web resources and services.